Regional Weather Roundup
Issued by NWS

Home | Current Version | Previous Version | Graphics & Text | Print | Product List | Glossary On
Versions: 1 2 3 4 5 6 7 8 9 10 11 12 13 14 15 16 17 18 19 20 21 22 23 24 25 26 27 28 29 30 31 32 33 34 35 36 37 38 39 40 41 42 43 44 45 46 47 48 49 50
000
ASUS43 KLSX 312359
RWRMO

WEATHER SUMMARY FOR MISSOURI
NATIONAL WEATHER SERVICE SPRINGFIELD MO
700 PM CDT FRI JUL 31 2015

NOTE: "FAIR" INDICATES FEW OR NO CLOUDS BELOW 12,000 FEET WITH NO
       SIGNIFICANT WEATHER AND/OR OBSTRUCTIONS TO VISIBILITY.
       CURRENT SKY AND/OR WEATHER CONDITIONS ARE NOT AVAILABLE FOR
       CHILLICOTHE AND FARMINGTON.

MOZ001>031-035>038-043-044-053-054-010100-
...NORTHERN AND WESTERN MISSOURI...

CITY           SKY/WX    TMP DP  RH WIND       PRES   REMARKS
KANSAS CTY INT MOSUNNY   86  69  56 SW3       30.05F HX  90
6HR MIN TEMP:  84; 6HR MAX TEMP:  89;

KANSAS C DTWN  SUNNY     88  67  49 NW6       30.03F HX  91
6HR MIN TEMP:  87; 6HR MAX TEMP:  91;

LEE`S SUMMIT   SUNNY     89  65  44 NW3       30.06S HX  91
6HR MIN TEMP:  86; 6HR MAX TEMP:  91;

ST JOSEPH      MOSUNNY   88  73  61 CALM      30.04S HX  95
6HR MIN TEMP:  85; 6HR MAX TEMP:  90;

CHILLICOTHE      N/A     88  73  61 CALM      30.05R HX  95
6HR MIN TEMP:  86; 6HR MAX TEMP:  91;

KIRKSVILLE     PTSUNNY   83  72  69 CALM      30.05S
6HR MIN TEMP:  83; 6HR MAX TEMP:  88;


$$
MOZ066>068-077>081-088>096-101>105-010100-
...SOUTHWEST MISSOURI...

CITY           SKY/WX    TMP DP  RH WIND       PRES   REMARKS
SPRINGFIELD    SUNNY     87  54  32 W6        30.08F
6HR MIN TEMP:  87; 6HR MAX TEMP:  90;

JOPLIN         SUNNY     88  61  40 S9        30.06F
6HR MIN TEMP:  88; 6HR MAX TEMP:  92;


$$
MOZ032>034-039>042-045>050-055>058-069>072-010100-
...CENTRAL MISSOURI...

CITY           SKY/WX    TMP DP  RH WIND       PRES   REMARKS
COLUMBIA       SUNNY     87  66  49 NW6       30.04F
6HR MIN TEMP:  87; 6HR MAX TEMP:  90;

JEFFERSON CITY SUNNY     89  61  38 W5        30.02F
6HR MIN TEMP:  88; 6HR MAX TEMP:  91;

ROLLA          SUNNY     85  63  47 SW6       30.05F
6HR MIN TEMP:  85; 6HR MAX TEMP:  90;

SEDALIA        SUNNY     88  63  43 NW5       30.06F
6HR MIN TEMP:  88; 6HR MAX TEMP:  92;

WHITEMAN AFB   SUNNY     90  59  36 W6        30.04S
WARRENSBURG    SUNNY     88  61  40 SW3       30.04S
OSAGE BEACH    SUNNY     86  66  51 CALM      30.05F

$$
MOZ051-052-059>065-010100-
...EAST CENTRAL MISSOURI...

CITY           SKY/WX    TMP DP  RH WIND       PRES   REMARKS
ST LOUIS INTL  MOSUNNY   89  62  40 N7        30.01F
6HR MIN TEMP:  89; 6HR MAX TEMP:  94;

SPIRIT OF STL  MOSUNNY   88  70  55 SW5       30.00F HX  93
6HR MIN TEMP:  88; 6HR MAX TEMP:  93;

ST CHARLES     SUNNY     89  63  41 VRB5      30.00F HX  90
6HR MIN TEMP:  89; 6HR MAX TEMP:  92;


$$
MOZ072>076-082>087-097>100-106>115-010100-
...SOUTH CENTRAL AND SOUTHEAST MISSOURI...

CITY           SKY/WX    TMP DP  RH WIND       PRES   REMARKS
CAPE GIRARDEAU SUNNY     89  66  46 N5        30.01F HX  91
6HR MIN TEMP:  88; 6HR MAX TEMP:  91;

FARMINGTON     SUNNY     86  63  45 NW3       30.09S
6HR MIN TEMP:  86; 6HR MAX TEMP:  88;

POPLAR BLUFF   SUNNY     89  66  46 W3        30.00F HX  91
6HR MIN TEMP:  89; 6HR MAX TEMP:  92;

WEST PLAINS    SUNNY     86  62  44 W5        30.09F
6HR MIN TEMP:  86; 6HR MAX TEMP:  91;


$$



USA.gov is the U.S. government's official web portal to all federal, state and local government web resources and services.